This is the latest recevied weather packets stored in our database for station/object WI0K. If no packets are shown the sender has not sent any weather packets the latest 10 day(s).
| Time | Temp. | Humidity | Pressure | Rain* | Wind** | Luminosity | Snow |
|---|---|---|---|---|---|---|---|
| 1777735151 | 12.78° C | 31% | 1022.5 hPa | 0 mm | - | 628 W/m² | - |
| 1777734850 | 12.22° C | 33% | 1022.5 hPa | 0 mm | - | 615 W/m² | - |
| 1777734549 | 12.22° C | 35% | 1022.5 hPa | 0 mm | - | 596 W/m² | - |
| 1777734248 | 12.22° C | 33% | 1022.5 hPa | 0 mm | - | 579 W/m² | - |
| 1777734197 | 11.67° C | 36% | 1022.5 hPa | 0 mm | - | 554 W/m² | - |
| 1777733947 | 11.67° C | 36% | 1022.5 hPa | 0 mm | - | 554 W/m² | - |
| 1777733647 | 11.11° C | 36% | 1022.7 hPa | 0 mm | - | 517 W/m² | - |
| 1777733596 | 11.11° C | 36% | 1022.7 hPa | 0 mm | - | 517 W/m² | - |
| 1777733346 | 11.11° C | 36% | 1022.7 hPa | 0 mm | - | 517 W/m² | - |
| 1777733045 | 10.56° C | 36% | 1022.7 hPa | 0 mm | - | 506 W/m² | - |
| 1777732745 | 10° C | 37% | 1022.7 hPa | 0 mm | - | 487 W/m² | - |
| 1777732690 | 10° C | 36% | 1022.5 hPa | 0 mm | - | 449 W/m² | - |
| 1777732444 | 10° C | 36% | 1022.5 hPa | 0 mm | - | 449 W/m² | - |
| 1777732143 | 10° C | 38% | 1022.5 hPa | 0 mm | - | 449 W/m² | - |
| 1777731843 | 10° C | 39% | 1022.5 hPa | 0 mm | - | 426 W/m² | - |
| 1777731788 | 9.44° C | 39% | 1022.7 hPa | 0 mm | - | 410 W/m² | - |
| 1777731543 | 9.44° C | 39% | 1022.7 hPa | 0 mm | - | 410 W/m² | - |
| 1777731242 | 9.44° C | 39% | 1022.7 hPa | 0 mm | - | 385 W/m² | - |
| 1777731182 | 9.44° C | 40% | 1022.7 hPa | 0 mm | - | 359 W/m² | - |
| 1777730941 | 9.44° C | 40% | 1022.7 hPa | 0 mm | - | 359 W/m² | - |
| 1777730892 | 8.89° C | 41% | 834.9 hPa | 0 mm | - | 352 W/m² | - |
| 1777730641 | 8.89° C | 41% | 834.9 hPa | 0 mm | - | 352 W/m² | - |
| 1777730591 | 8.89° C | 41% | 834.9 hPa | 0 mm | - | 331 W/m² | - |
| 1777730340 | 8.89° C | 41% | 834.9 hPa | 0 mm | - | 331 W/m² | - |
| 1777730291 | 8.33° C | 44% | 834.9 hPa | 0 mm | - | 313 W/m² | - |
* Rain latest hour (hover to see other rain measurements)
** Current wind speed in m/s (hover to see current wind gust speed)